User: anonymous   Login
Location: Franzen
(48.6167°N, 15.3833°E)
Time: 03:51:55
(UTC+00:00)
Language:

Terra - Orbit

View from above orbital plane
View from above orbital plane
View from above satellite
View from above satellite

Ground track
Ground track

The orbit data is extracted from the following two-line orbital elements,

1 25994U 99068A   21171.53372458  .00000048  00000-0  20570-4 0  9990
2 25994  98.1757 245.9011 0001373  90.3220  23.6276 14.57128065143799
Epoch (UTC): 20 June 2021 12:48:33
Eccentricity: 0.0001373
inclination: 98.1757°
perigee height: 701 km
apogee height: 703 km
right ascension of ascending node: 245.9011°
argument of perigee: 90.3220°
revolutions per day: 14.57128065
mean anomaly at epoch: 23.6276°
orbit number at epoch: 14379

The dashed part of the orbit path shows where the satellite is in the earth's shadow,  

DLR